Location: Nairn
(57.5833°N, 3.8667°W)
Time: 17:57:38
(UTC+00:00)

Cosmos 1975 - Pass Details

Date: 07 August 2020
Orbit: 542 x 561 km, 82.5° (Epoch: 23 September)

Event Time Altitude Azimuth Distance (km) Brightness Sun altitude
Exits shadow 00:44:54 31° 175° (S) 975 3.5 -15.9°
Maximum altitude 00:46:42 70° 99° (E) 593 2.9 -15.9°
Drops below altitude 10° 00:50:44 10° 16° (NNE) 1,846 6.8 -15.8°
Sets 00:52:55 0° 15° (NNE) 2,749 8.2 -15.8°
